Zurück zum Katalog

COSMOS 1541

LostMilitärHEO
NORAD 14790·PAYLOAD·🇷🇺 Russia

Gestartet Mar 6, 1984 von Plesetsk Cosmodrome

Loading…

Nächste Überflüge (nächste 24 Stunden)

TLE

VeraltetSource: Space-Track

Epoche: Jul 30, 2026, 21:28 UTC

1 14790U 84024A   26211.89457546  .00000168  00000-0  00000+0 0  9993
2 14790  71.6971 146.7342 5090934 339.2648 226.5068  2.00607657282819

Verfolge COSMOS 1541 in Echtzeit mit AllMySat

Download on the App Store